Wilmington, DE

1:35 PM EST on November 13, 2019 (GMT -0500)
New Castle County

Weather History for KILG - August, 2019

Change the Weather History Date:

Friday, August 2, 2019

  Actual Average Record
Temperature  
Mean Temperature 78 °F 76 °F  
Max Temperature 84 °F 86 °F 101 °F (1955)
Min Temperature 72 °F 68 °F 55 °F (1976)
Degree Days  
Heating Degree Days 0 0  
Month to date heating degree days 0 0  
Since 1 June heating degree days 5 15  
Since 1 July heating degree days 0 0  
Cooling Degree Days 13 12  
Month to date cooling degree days 27 24  
Year to date cooling degree days 889 701  
Since 1 June cooling degree days 757 622  
Growing Degree Days 28 (Base 50)    
Moisture  
Dew Point 72 °F    
Average Humidity 83    
Maximum Humidity 100    
Minimum Humidity 65    
Precipitation  
Precipitation 0.00 in 0.12 in 2.52 in (1899)
Month to date precipitation 0.40 0.24  
Year to date precipitation 33.86 25.75  
Snow  
Snow 0.00 in 0.00 in 0.00 in (1894)
Month to date snowfall 0.0 0.0  
Since 1 June snowfall 0.0 0.0  
Since 1 July snowfall 0.0 0.0  
Snow Depth 0.00 in    
Sea Level Pressure  
Sea Level Pressure 30.11 in    
Wind  
Wind Speed 7 mph (SSE)    
Max Wind Speed 20 mph    
Max Gust Speed 23 mph    
Visibility 9 miles    
Events Thunderstorm    
T = Trace of Precipitation, MM = Missing Value Source: NWS Daily Summary

Daily Weather History Graph

Daily Weather History Graph

Search for Another Location

Airport or City:

Astronomy

Aug. 02, 2019 Rise Set
Actual Time 6:02 AM EDT 8:14 PM EDT
Civil Twilight 5:32 AM EDT 8:44 PM EDT
Nautical Twilight 4:55 AM EDT 9:21 PM EDT
Astronomical Twilight 4:14 AM EDT 10:01 PM EDT
Moon 7:38 AM EDT (8/2) 9:41 PM EDT (8/2)
Length of Visible Light 15h 12m
Length of Day
14h 12m
Waxing Crescent, 4% of the Moon is Illuminated
Aug 2
Waxing Crescent
Aug 7
First Quarter
Aug 15
Full
Aug 23
Last Quarter
Aug 30
New

Hourly Weather History & Observations

Time (EDT) Temp. Heat Index Dew Point Humidity Pressure Visibility Wind Dir Wind Speed Gust Speed Precip Events Conditions
12:51 AM 73.9 °F - 72.0 °F 93% 30.11 in 10.0 mi Calm Calm - N/A   Clear
1:33 AM 73.9 °F - 73.0 °F 97% 30.11 in 6.0 mi Calm Calm - N/A   Mostly Cloudy
1:51 AM 73.0 °F - 72.0 °F 96% 30.11 in 7.0 mi NNW 3.5 mph - N/A   Scattered Clouds
2:51 AM 73.0 °F - 72.0 °F 96% 30.11 in 6.0 mi Calm Calm - N/A   Clear
3:51 AM 72.0 °F - 70.0 °F 93% 30.10 in 8.0 mi ENE 5.8 mph - N/A   Clear
4:51 AM 73.9 °F - 72.0 °F 93% 30.10 in 7.0 mi East 5.8 mph - N/A   Clear
5:51 AM 73.0 °F - 72.0 °F 96% 30.12 in 7.0 mi Calm Calm - N/A   Clear
6:51 AM 72.0 °F - 71.1 °F 97% 30.12 in 4.0 mi Calm Calm - N/A   Clear
7:14 AM 73.0 °F - 72.0 °F 96% 30.13 in 4.0 mi Calm Calm - N/A   Mostly Cloudy
7:22 AM 73.9 °F - 73.0 °F 97% 30.13 in 5.0 mi East 4.6 mph - N/A   Mostly Cloudy
7:51 AM 75.0 °F - 73.0 °F 94% 30.11 in 5.0 mi NNE 8.1 mph - N/A   Partly Cloudy
8:51 AM 75.9 °F - 73.0 °F 91% 30.13 in 9.0 mi SE 8.1 mph - N/A   Partly Cloudy
9:47 AM 78.8 °F - 73.4 °F 83% 30.14 in 10.0 mi Variable 6.9 mph - N/A   Mostly Cloudy
9:51 AM 79.0 °F - 73.0 °F 82% 30.13 in 10.0 mi South 6.9 mph - N/A   Mostly Cloudy
10:17 AM 79.0 °F - 73.0 °F 82% 30.14 in 10.0 mi SSE 4.6 mph - N/A   Scattered Clouds
10:51 AM 79.0 °F - 72.0 °F 79% 30.13 in 10.0 mi East 3.5 mph - N/A   Partly Cloudy
11:51 AM 80.1 °F 83.6 °F 71.1 °F 74% 30.14 in 10.0 mi Variable 3.5 mph - N/A   Partly Cloudy
12:51 PM 82.9 °F 88.0 °F 72.0 °F 69% 30.12 in 10.0 mi SE 9.2 mph - N/A   Partly Cloudy
1:51 PM 82.9 °F 88.0 °F 72.0 °F 69% 30.11 in 10.0 mi South 10.4 mph - N/A   Partly Cloudy
2:42 PM 82.9 °F 88.8 °F 73.0 °F 72% 30.11 in 10.0 mi South 11.5 mph - N/A Thunderstorm Clear
2:51 PM 82.9 °F 88.8 °F 73.0 °F 72% 30.11 in 10.0 mi SSE 10.4 mph - N/A Thunderstorm Clear
2:58 PM 84.0 °F 90.2 °F 73.0 °F 69% 30.11 in 10.0 mi SSE 13.8 mph - N/A Thunderstorm Thunderstorm
3:15 PM 84.0 °F 89.0 °F 71.1 °F 65% 30.10 in 10.0 mi South 12.7 mph - N/A   Clear
3:51 PM 84.0 °F 89.6 °F 72.0 °F 67% 30.08 in 10.0 mi South 13.8 mph - N/A   Clear
4:18 PM 84.0 °F 88.4 °F 70.0 °F 63% 30.08 in 10.0 mi South 17.3 mph - N/A Thunderstorm Clear
4:33 PM 84.0 °F 87.8 °F 69.1 °F 61% 30.09 in 10.0 mi SSE 16.1 mph 21.9 mph N/A   Clear
4:51 PM 82.9 °F 86.5 °F 69.1 °F 63% 30.09 in 10.0 mi South 15.0 mph - N/A   Clear
5:51 PM 80.1 °F 82.9 °F 69.1 °F 69% 30.09 in 10.0 mi ESE 9.2 mph - N/A   Partly Cloudy
6:51 PM 81.0 °F 84.9 °F 71.1 °F 72% 30.08 in 10.0 mi SSE 11.5 mph - N/A   Clear
7:31 PM 80.1 °F 83.8 °F 72.0 °F 76% 30.08 in 10.0 mi SSE 11.5 mph - N/A   Mostly Cloudy
7:51 PM 79.0 °F - 72.0 °F 79% 30.08 in 10.0 mi South 10.4 mph - N/A   Mostly Cloudy
8:37 PM 78.1 °F - 72.0 °F 81% 30.09 in 10.0 mi South 8.1 mph - N/A   Scattered Clouds
8:51 PM 77.0 °F - 72.0 °F 84% 30.09 in 10.0 mi South 5.8 mph - N/A   Clear
9:51 PM 77.0 °F - 72.0 °F 84% 30.10 in 10.0 mi SE 6.9 mph - N/A   Partly Cloudy
10:51 PM 75.9 °F - 72.0 °F 87% 30.09 in 10.0 mi SSE 8.1 mph - N/A   Clear
11:51 PM 75.0 °F - 72.0 °F 90% 30.09 in 10.0 mi SW 3.5 mph - N/A   Mostly Cloudy